ISR997 LLBG-LCLK

Flight info

Callsign ISR997
Flight time 0h 39m
Altitude 26000
Route DAFNA DCT VELOX N131 EMEDA
Aircraft A320/M-SDE3FGHIRWY/LB1

Departure

Time 2026-05-05 16:05
Airport Ben Gurion International Airport (LLBG)

Arrival

Time 2026-05-05 16:44
Airport Larnaca International Airport (LCLK)
Time Latitude Longitude Altitude Speed Heading
2026-05-05 15:27 32.00186 34.87850 120 ft 0 kts 122°
2026-05-05 15:28 32.00187 34.87850 120 ft 0 kts 122°
2026-05-05 15:36 32.00187 34.87849 120 ft 0 kts 122°
2026-05-05 15:53 32.00199 34.87827 117 ft 4 kts 127°
2026-05-05 15:53 32.00217 34.87803 118 ft 4 kts 137°
2026-05-05 15:53 32.00238 34.87784 118 ft 4 kts 161°
2026-05-05 15:54 32.00258 34.87783 117 ft 2 kts 211°
2026-05-05 15:54 32.00246 34.87774 116 ft 1 kts 212°
2026-05-05 15:54 32.00246 34.87773 116 ft 2 kts 212°
2026-05-05 15:57 32.00245 34.87773 116 ft 1 kts 212°
2026-05-05 15:57 32.00233 34.87764 115 ft 3 kts 212°
2026-05-05 15:57 32.00208 34.87747 116 ft 5 kts 212°
2026-05-05 15:58 32.00190 34.87726 117 ft 6 kts 240°
2026-05-05 15:58 32.00205 34.87675 119 ft 8 kts 325°
2026-05-05 15:58 32.00263 34.87685 118 ft 10 kts 34°
2026-05-05 15:58 32.00332 34.87735 120 ft 13 kts 31°
2026-05-05 15:59 32.00424 34.87801 119 ft 18 kts 31°
2026-05-05 15:59 32.00539 34.87883 119 ft 21 kts 31°
2026-05-05 15:59 32.00655 34.87965 119 ft 17 kts 31°
2026-05-05 15:59 32.00751 34.88036 116 ft 14 kts 34°
2026-05-05 16:00 32.00780 34.88058 119 ft 14 kts 31°
2026-05-05 16:00 32.00799 34.88072 117 ft 15 kts 31°
2026-05-05 16:00 32.00895 34.88139 118 ft 17 kts 32°
2026-05-05 16:00 32.01003 34.88218 117 ft 19 kts 31°
2026-05-05 16:01 32.01125 34.88306 119 ft 22 kts 31°
2026-05-05 16:01 32.01233 34.88385 121 ft 19 kts 35°
2026-05-05 16:01 32.01339 34.88492 119 ft 21 kts 46°
2026-05-05 16:01 32.01432 34.88642 120 ft 24 kts 60°
2026-05-05 16:02 32.01491 34.88819 118 ft 24 kts 76°
2026-05-05 16:02 32.01520 34.88996 118 ft 20 kts 79°
2026-05-05 16:02 32.01545 34.89132 120 ft 13 kts 64°
2026-05-05 16:02 32.01619 34.89156 116 ft 7 kts 350°
2026-05-05 16:03 32.01630 34.89153 118 ft 0 kts 350°
2026-05-05 16:03 32.01642 34.89151 117 ft 3 kts 350°
2026-05-05 16:04 32.01695 34.89140 117 ft 15 kts 349°
2026-05-05 16:04 32.01740 34.89051 119 ft 14 kts 259°
2026-05-05 16:04 32.01720 34.88923 121 ft 32 kts 260°
2026-05-05 16:04 32.01639 34.88394 121 ft 96 kts 259°
2026-05-05 16:05 32.01490 34.87420 120 ft 143 kts 260°
2026-05-05 16:05 32.01299 34.86139 364 ft 163 kts 263°
2026-05-05 16:05 32.01066 34.84829 1066 ft 163 kts 261°
2026-05-05 16:05 32.00802 34.83531 1777 ft 162 kts 258°
2026-05-05 16:06 32.00513 34.82175 2142 ft 181 kts 258°
2026-05-05 16:06 32.00194 34.80649 2422 ft 203 kts 259°
2026-05-05 16:06 31.99840 34.78933 2744 ft 228 kts 258°
2026-05-05 16:06 31.99451 34.77050 3392 ft 242 kts 258°
2026-05-05 16:07 31.99227 34.75074 4239 ft 247 kts 275°
2026-05-05 16:07 31.99679 34.73114 5150 ft 250 kts 289°
2026-05-05 16:07 32.00284 34.71180 6082 ft 253 kts 289°
2026-05-05 16:07 32.00900 34.69222 6958 ft 256 kts 289°
2026-05-05 16:08 32.01525 34.67232 7700 ft 262 kts 289°
2026-05-05 16:08 32.02156 34.65215 7942 ft 263 kts 289°
2026-05-05 16:08 32.02663 34.63183 7999 ft 262 kts 277°
2026-05-05 16:08 32.02796 34.61045 8002 ft 262 kts 274°
2026-05-05 16:09 32.02908 34.58904 8004 ft 261 kts 274°
2026-05-05 16:09 32.03019 34.56765 8005 ft 261 kts 274°
2026-05-05 16:09 32.03129 34.54631 8005 ft 261 kts 274°
2026-05-05 16:09 32.03239 34.52493 8003 ft 262 kts 274°
2026-05-05 16:10 32.03351 34.50334 8308 ft 267 kts 274°
2026-05-05 16:10 32.03547 34.48167 9255 ft 267 kts 286°
2026-05-05 16:10 32.04458 34.46262 10076 ft 273 kts 314°
2026-05-05 16:10 32.06100 34.45114 10825 ft 283 kts 342°
2026-05-05 16:11 32.08110 34.45001 11401 ft 302 kts
2026-05-05 16:11 32.15001 34.45906 12700 ft 350 kts
2026-05-05 16:12 32.17430 34.46264 13468 ft 354 kts
2026-05-05 16:12 32.22389 34.46961 14867 ft 363 kts
2026-05-05 16:13 32.29991 34.47535 16847 ft 366 kts 346°
2026-05-05 16:13 32.32456 34.46801 17513 ft 363 kts 334°
2026-05-05 16:13 32.34686 34.45498 18197 ft 360 kts 322°
2026-05-05 16:14 32.38411 34.41602 19472 ft 360 kts 311°
2026-05-05 16:14 32.42019 34.37400 20794 ft 368 kts 311°
2026-05-05 16:15 32.45702 34.33110 22085 ft 375 kts 310°
2026-05-05 16:15 32.49445 34.28729 23309 ft 382 kts 310°
2026-05-05 16:16 32.53565 34.24615 24386 ft 398 kts 324°
2026-05-05 16:16 32.58923 34.22471 25460 ft 422 kts 346°
2026-05-05 16:17 32.64811 34.21806 26011 ft 426 kts 347°
2026-05-05 16:17 32.67759 34.21478 26046 ft 425 kts 347°
2026-05-05 16:18 32.73645 34.20813 26033 ft 425 kts 347°
2026-05-05 16:18 32.76588 34.20476 26032 ft 425 kts 347°
2026-05-05 16:18 32.82431 34.19802 26041 ft 425 kts 347°
2026-05-05 16:19 32.85371 34.19462 26035 ft 425 kts 347°
2026-05-05 16:19 32.88314 34.19123 26036 ft 425 kts 347°
2026-05-05 16:19 32.94192 34.18449 26045 ft 424 kts 347°
2026-05-05 16:20 33.00075 34.17776 26049 ft 425 kts 347°
2026-05-05 16:20 33.05959 34.17105 26051 ft 425 kts 347°
2026-05-05 16:21 33.11841 34.16430 26053 ft 424 kts 347°
2026-05-05 16:22 33.20655 34.15411 26059 ft 424 kts 347°
2026-05-05 16:22 33.26533 34.14741 26061 ft 424 kts 347°
2026-05-05 16:23 33.32400 34.14070 26062 ft 423 kts 347°
2026-05-05 16:23 33.35333 34.13730 26062 ft 423 kts 347°
2026-05-05 16:23 33.41150 34.13048 26062 ft 422 kts 347°
2026-05-05 16:24 33.44078 34.12706 26059 ft 422 kts 347°
2026-05-05 16:24 33.47006 34.12366 26056 ft 422 kts 347°
2026-05-05 16:24 33.52844 34.11694 26058 ft 421 kts 347°
2026-05-05 16:25 33.55760 34.11355 26054 ft 421 kts 347°
2026-05-05 16:25 33.61582 34.10677 25999 ft 418 kts 347°
2026-05-05 16:25 33.64448 34.10344 25749 ft 410 kts 347°
2026-05-05 16:26 33.70083 34.09684 25273 ft 404 kts 347°
2026-05-05 16:26 33.75646 34.09043 24333 ft 400 kts 347°
2026-05-05 16:27 33.78419 34.08720 23839 ft 400 kts 348°
2026-05-05 16:27 33.81168 34.08319 23311 ft 394 kts 342°
2026-05-05 16:27 33.83743 34.07478 22849 ft 385 kts 335°
2026-05-05 16:27 33.86258 34.06418 22400 ft 381 kts 335°
2026-05-05 16:28 33.88754 34.05374 21966 ft 378 kts 335°
2026-05-05 16:28 33.91233 34.04340 21529 ft 376 kts 336°
2026-05-05 16:28 33.93702 34.03311 21094 ft 374 kts 336°
2026-05-05 16:28 33.96157 34.02285 20660 ft 372 kts 336°
2026-05-05 16:29 33.98593 34.01260 20210 ft 370 kts 336°
2026-05-05 16:29 34.01015 34.00237 19763 ft 368 kts 336°
2026-05-05 16:29 34.03425 33.99220 19317 ft 366 kts 337°
2026-05-05 16:29 34.05827 33.98210 18856 ft 365 kts 337°
2026-05-05 16:30 34.08220 33.97207 18399 ft 363 kts 337°
2026-05-05 16:30 34.10602 33.96213 17887 ft 361 kts 337°
2026-05-05 16:30 34.12960 33.95227 17416 ft 357 kts 337°
2026-05-05 16:30 34.15294 33.94248 16963 ft 353 kts 337°
2026-05-05 16:31 34.17571 33.93288 16506 ft 350 kts 337°
2026-05-05 16:31 34.19856 33.92321 16046 ft 346 kts 337°
2026-05-05 16:31 34.22118 33.91364 15593 ft 343 kts 337°
2026-05-05 16:31 34.24359 33.90417 15148 ft 340 kts 337°
2026-05-05 16:32 34.26580 33.89480 14693 ft 337 kts 337°
2026-05-05 16:32 34.28789 33.88546 14248 ft 335 kts 338°
2026-05-05 16:32 34.30980 33.87620 13814 ft 333 kts 338°
2026-05-05 16:32 34.33160 33.86699 13329 ft 330 kts 338°
2026-05-05 16:33 34.35319 33.85785 12883 ft 327 kts 338°
2026-05-05 16:33 34.37463 33.84880 12446 ft 324 kts 338°
2026-05-05 16:33 34.39583 33.83982 12017 ft 321 kts 338°
2026-05-05 16:33 34.41685 33.83089 11592 ft 319 kts 338°
2026-05-05 16:34 34.43773 33.82200 11157 ft 317 kts 338°
2026-05-05 16:34 34.45849 33.81318 10736 ft 315 kts 338°
2026-05-05 16:34 34.47923 33.80495 10444 ft 311 kts 342°
2026-05-05 16:34 34.50026 33.80072 10341 ft 302 kts 350°
2026-05-05 16:35 34.52074 33.79788 10255 ft 291 kts 349°
2026-05-05 16:35 34.54029 33.79513 10127 ft 283 kts 349°
2026-05-05 16:35 34.55954 33.79237 10023 ft 274 kts 349°
2026-05-05 16:35 34.57802 33.78972 10023 ft 261 kts 349°
2026-05-05 16:36 34.59563 33.78718 10027 ft 248 kts 349°
2026-05-05 16:36 34.61237 33.78478 10023 ft 237 kts 349°
2026-05-05 16:36 34.62858 33.78245 10029 ft 234 kts 349°
2026-05-05 16:36 34.64493 33.78004 9711 ft 239 kts 349°
2026-05-05 16:37 34.66163 33.77788 9321 ft 245 kts 356°
2026-05-05 16:37 34.67879 33.78059 8926 ft 252 kts
2026-05-05 16:37 34.69612 33.78512 8540 ft 257 kts
2026-05-05 16:37 34.71369 33.78976 8155 ft 259 kts
2026-05-05 16:38 34.73168 33.79224 7778 ft 261 kts
2026-05-05 16:38 34.74990 33.79396 7398 ft 264 kts
2026-05-05 16:38 34.76833 33.79554 7029 ft 267 kts
2026-05-05 16:38 34.78699 33.79707 6662 ft 270 kts
2026-05-05 16:39 34.80577 33.79855 6293 ft 272 kts
2026-05-05 16:39 34.82477 33.79998 5899 ft 274 kts
2026-05-05 16:39 34.84386 33.80133 5514 ft 276 kts
2026-05-05 16:39 34.86309 33.80261 5141 ft 277 kts
2026-05-05 16:40 34.88229 33.80386 4745 ft 273 kts
2026-05-05 16:40 34.90084 33.80395 4363 ft 260 kts 347°
2026-05-05 16:40 34.91668 33.79545 3983 ft 245 kts 319°
2026-05-05 16:40 34.92818 33.78082 3603 ft 235 kts 304°
2026-05-05 16:41 34.93633 33.76409 3204 ft 226 kts 286°
2026-05-05 16:41 34.93832 33.74536 2745 ft 219 kts 271°
2026-05-05 16:41 34.93839 33.72737 2282 ft 207 kts 270°
2026-05-05 16:41 34.93772 33.71021 1782 ft 199 kts 257°
2026-05-05 16:42 34.93211 33.69568 1445 ft 191 kts 231°
2026-05-05 16:42 34.92301 33.68421 1207 ft 181 kts 227°
2026-05-05 16:42 34.91452 33.67386 936 ft 166 kts 226°
2026-05-05 16:42 34.90688 33.66450 715 ft 147 kts 225°
2026-05-05 16:43 34.89983 33.65587 524 ft 141 kts 224°
2026-05-05 16:43 34.89295 33.64746 354 ft 139 kts 224°
2026-05-05 16:43 34.88844 33.64192 218 ft 138 kts 224°
2026-05-05 16:43 34.88170 33.63366 62 ft 138 kts 224°
2026-05-05 16:44 34.87543 33.62602 21 ft 108 kts 225°
2026-05-05 16:44 34.87135 33.62104 23 ft 58 kts 224°
2026-05-05 16:44 34.86984 33.61839 24 ft 24 kts 248°
2026-05-05 16:44 34.86945 33.61688 23 ft 14 kts 255°
2026-05-05 16:45 34.86917 33.61563 22 ft 16 kts 254°
2026-05-05 16:45 34.86914 33.61548 21 ft 0 kts 257°
2026-05-05 16:46 34.86913 33.61544 21 ft 1 kts 257°
2026-05-05 16:46 34.86905 33.61500 21 ft 11 kts 256°
2026-05-05 16:46 34.86881 33.61423 21 ft 10 kts 250°
2026-05-05 16:46 34.86891 33.61363 22 ft 7 kts 310°
2026-05-05 16:47 34.86932 33.61316 20 ft 9 kts 315°
2026-05-05 16:47 34.86983 33.61253 20 ft 12 kts 315°
2026-05-05 16:47 34.87029 33.61197 22 ft 7 kts 315°
2026-05-05 16:47 34.87035 33.61159 20 ft 5 kts 239°
2026-05-05 16:48 34.87005 33.61120 20 ft 6 kts 225°
2026-05-05 16:48 34.86991 33.61103 20 ft 3 kts 224°
2026-05-05 16:48 34.86986 33.61097 20 ft 0 kts 224°